San Antonio Stinson, TX

5:25 AM CDT on May 27, 2018 (GMT -0500)
Stinson Municipal

Weather History for KSSF - August, 2012

Change the Weather History Date:

Tuesday, August 21, 2012

  Actual Average Record
Temperature  
Mean Temperature 83 °F -  
Max Temperature 95 °F 93 °F 104 °F (1999)
Min Temperature 73 °F 72 °F 73 °F (1999)
Cooling Degree Days 18    
Growing Degree Days 33 (Base 50)    
Moisture  
Dew Point 64 °F    
Average Humidity 56    
Maximum Humidity 79    
Minimum Humidity 32    
Precipitation  
Precipitation 0.00 in - - ()
Sea Level Pressure  
Sea Level Pressure 29.92 in    
Wind  
Wind Speed 4 mph (ENE)    
Max Wind Speed 13 mph    
Max Gust Speed 23 mph    
Visibility 10 miles    
Events      
Averages and records for this station are not official NWS values.
T = Trace of Precipitation, MM = Missing Value Source: NWS Daily Summary

Daily Weather History Graph

Daily Weather History Graph

Search for Another Location

Airport or City:

Astronomy

Aug. 21, 2012 Rise Set
Actual Time 7:05 AM CDT 8:07 PM CDT
Civil Twilight 6:41 AM CDT 8:32 PM CDT
Nautical Twilight 6:12 AM CDT 9:01 PM CDT
Astronomical Twilight 5:42 AM CDT 9:31 PM CDT
Moon 11:10 AM CDT (8/21) 10:38 PM CDT (8/21)
Length of Visible Light 13h 50m
Length of Day
13h 01m
Waxing Crescent, 19% of the Moon is Illuminated
Aug 21
Waxing Crescent
Aug 24
First Quarter
Aug 31
Full
Sep 8
Last Quarter
Sep 15
New

Hourly Weather History & Observations

Time (CDT) Temp. Heat Index Dew Point Humidity Pressure Visibility Wind Dir Wind Speed Gust Speed Precip Events Conditions
12:53 AM 78.1 °F - 66.9 °F 68% 29.90 in 10.0 mi Calm Calm - N/A   Clear
1:53 AM 77.0 °F - 68.0 °F 74% 29.89 in 10.0 mi Calm Calm - N/A   Clear
2:53 AM 75.9 °F - 69.1 °F 79% 29.89 in 10.0 mi Calm Calm - N/A   Clear
3:53 AM 75.9 °F - 68.0 °F 76% 29.88 in 10.0 mi Calm Calm - N/A   Clear
4:53 AM 75.0 °F - 66.9 °F 76% 29.88 in 10.0 mi Calm Calm - N/A   Clear
5:53 AM 73.9 °F - 66.9 °F 79% 29.89 in 10.0 mi Calm Calm - N/A   Clear
6:53 AM 73.9 °F - 66.0 °F 76% 29.90 in 10.0 mi Calm Calm - N/A   Clear
7:53 AM 75.9 °F - 68.0 °F 76% 29.92 in 10.0 mi Calm Calm - N/A   Clear
8:53 AM 78.1 °F - 63.0 °F 60% 29.96 in 10.0 mi ENE 8.1 mph - N/A   Overcast
9:53 AM 82.0 °F 82.7 °F 61.0 °F 49% 29.96 in 10.0 mi NE 11.5 mph - N/A   Clear
10:53 AM 84.9 °F 85.9 °F 63.0 °F 48% 29.96 in 10.0 mi ENE 8.1 mph - N/A   Clear
11:53 AM 88.0 °F 87.9 °F 61.0 °F 40% 29.96 in 10.0 mi East 6.9 mph - N/A   Clear
12:53 PM 90.0 °F 89.1 °F 59.0 °F 35% 29.94 in 10.0 mi Variable 3.5 mph - N/A   Clear
1:53 PM 91.9 °F 91.8 °F 61.0 °F 35% 29.93 in 10.0 mi SE 5.8 mph - N/A   Clear
2:53 PM 93.0 °F 93.0 °F 61.0 °F 34% 29.92 in 10.0 mi East 10.4 mph - N/A   Partly Cloudy
3:53 PM 91.9 °F 91.5 °F 60.1 °F 34% 29.91 in 10.0 mi East 9.2 mph - N/A   Mostly Cloudy
4:53 PM 93.0 °F 92.7 °F 60.1 °F 33% 29.91 in 10.0 mi East 5.8 mph - N/A   Partly Cloudy
5:53 PM 93.0 °F 92.3 °F 59.0 °F 32% 29.89 in 10.0 mi East 8.1 mph - N/A   Partly Cloudy
6:53 PM 91.9 °F 91.2 °F 59.0 °F 33% 29.90 in 10.0 mi ENE 12.7 mph 16.1 mph N/A   Scattered Clouds
7:53 PM 88.0 °F 88.4 °F 62.1 °F 42% 29.91 in 10.0 mi NE 12.7 mph 23.0 mph N/A   Mostly Cloudy
8:53 PM 82.9 °F 84.6 °F 64.9 °F 54% 29.91 in 10.0 mi ENE 10.4 mph 18.4 mph N/A   Partly Cloudy
9:53 PM 81.0 °F 83.0 °F 66.0 °F 60% 29.94 in 10.0 mi ENE 9.2 mph - N/A   Clear
10:53 PM 79.0 °F - 68.0 °F 69% 29.96 in 10.0 mi NE 10.4 mph - N/A   Clear
11:53 PM 75.9 °F - 69.1 °F 79% 29.96 in 10.0 mi NE 9.2 mph - N/A   Scattered Clouds